Flag for Netherlands Weather past 2 weeks in Apeldoorn, Netherlands

Now
50 °F

Broken clouds.


Feels Like: 43 °F
Forecast: 38 / 44 °F
Wind: 24 mph from West

Location: Deelen

Current Time: Mar 31, 2015 at 6:04:04 PM

Latest Report: Mar 31, 2015 at 5:25 PM


Visibility: N/A

Pressure: 29.65 "Hg

Humidity: 50%

Dew point: 32 °F

Location of ApeldoornLocation

Historic Weather in Apeldoorn — Graph

°F

Apeldoorn temperature yesterday

Maximum temperature yesterday: 48 °F (at 3:55 PM)
Minimum temperature yesterday: 41 °F (at 8:25 PM)
Average temperature yesterday: 44 °F

Past Weeks' High & Low Weather Summary

 TemperatureHumidityPressure
High63 °F (Mar 17, 1:55 PM)100% (Mar 17, 2:55 AM)30.39 "Hg (Mar 17, 2:55 AM)
Low25 °F (Mar 24, 3:55 AM)39% (Mar 17, 1:55 PM)29.15 "Hg (Mar 29, 6:55 PM)
Average42 °F83%29.96 "Hg
* Reported Mar 16 3:25 PM — Mar 31 4:55 PM, Apeldoorn, Weather by CustomWeather, © 2015

Note: Actual official high and low records may vary slightly from our data, if they occured in-between our weather recording intervals... More about our weather records

Advertising

Apeldoorn weather history for previous 24 hours

 ConditionsComfort  
Time TempWeatherWind HumidityBarometerVisibility
4:55 PM
Tue, Mar 31
50 °FBroken clouds.28 mph47%29.62 "HgN/A
4:25 PM50 °FPartly sunny.37 mph47%29.62 "HgN/A
3:55 PM50 °FBroken clouds.26 mph47%29.59 "HgN/A
3:25 PM48 °FBroken clouds.26 mph54%29.59 "HgN/A
2:55 PM50 °FBroken clouds.28 mph50%29.56 "HgN/A
2:25 PM50 °FBroken clouds.30 mph54%29.53 "HgN/A
1:55 PM48 °FBroken clouds.28 mph58%29.50 "HgN/A
1:25 PM48 °FCloudy.30 mph62%29.47 "HgN/A
12:55 PM48 °FCloudy.23 mph62%29.45 "HgN/A
12:25 PM48 °FCloudy.33 mph62%29.45 "HgN/A
11:55 AM48 °FCloudy.31 mph62%29.42 "HgN/A
11:25 AM48 °FPartly sunny.24 mph66%29.39 "HgN/A
10:55 AM48 °FDrizzle. Mostly cloudy.26 mph71%29.36 "Hg5 mi
10:25 AM48 °FLight rain. Broken clouds.32 mph71%29.33 "HgN/A
9:55 AM50 °FMostly cloudy.29 mph62%29.30 "HgN/A
9:25 AM50 °FPartly sunny.25 mph67%29.30 "HgN/A
8:55 AM50 °FMore clouds than sun.25 mph71%29.27 "HgN/A
8:25 AM50 °FBroken clouds.25 mph71%29.27 "HgN/A
7:55 AM50 °FPassing clouds.25 mph82%29.24 "HgN/A
7:25 AM50 °FPartly cloudy.24 mph82%29.21 "HgN/A
6:55 AM50 °FPassing clouds.26 mph88%29.21 "HgN/A
6:25 AM50 °FDrizzle. Mostly cloudy.30 mph88%29.18 "HgN/A
5:55 AM50 °FDrizzle. Overcast.30 mph94%29.21 "Hg6 mi
5:25 AM50 °FMostly cloudy.29 mph94%29.21 "HgN/A
4:55 AM50 °FPartly cloudy.26 mph100%29.21 "Hg2 mi
4:25 AM48 °FRain. Partly cloudy.24 mph100%29.21 "Hg2 mi
3:55 AM46 °FLight rain. Overcast.17 mph100%29.24 "Hg3 mi
3:25 AM45 °FRain. Mostly cloudy.16 mph93%29.30 "Hg3 mi
2:55 AM43 °FLight rain. Mostly cloudy.17 mph93%29.33 "Hg2 mi
2:25 AM41 °FLight rain. Partly cloudy.17 mph100%29.39 "Hg3 mi
1:55 AM41 °FLight rain. Partly cloudy.15 mph93%29.45 "Hg4 mi
1:25 AM41 °FLight rain. Passing clouds.14 mph93%29.47 "Hg5 mi
12:55 AM39 °FSprinkles. Overcast.13 mph93%29.53 "HgN/A
12:25 AM39 °FSprinkles. Mostly cloudy.16 mph93%29.59 "HgN/A
11:55 PM
Mon, Mar 30
41 °FLight rain. Overcast.15 mph81%29.62 "HgN/A
11:25 PM41 °FLight rain. Mostly cloudy.21 mph76%29.65 "HgN/A
10:55 PM43 °FLight rain. Passing clouds.9 mph66%29.68 "HgN/A
10:25 PM43 °FPassing clouds.9 mph66%29.71 "HgN/A
9:55 PM43 °FPartly cloudy.10 mph66%29.74 "HgN/A
9:25 PM43 °FPartly cloudy.10 mph66%29.74 "HgN/A
8:55 PM43 °FPartly sunny.8 mph66%29.77 "HgN/A
8:25 PM41 °FPartly sunny.6 mph66%29.80 "HgN/A
7:55 PM43 °FPassing clouds.8 mph53%29.80 "HgN/A
7:25 PM45 °FPassing clouds.10 mph49%29.80 "HgN/A
6:55 PM46 °FPartly sunny.13 mph50%29.80 "HgN/A
6:25 PM46 °FPartly sunny.15 mph50%29.80 "HgN/A
Weather by CustomWeather, © 2015

See weather overviewHow to use our weather pages